Location: Peterborough
(44.3091°N, 78.3197°W)
Time: 23:21:33
(UTC-04:00)

Altair - Pass Details

Date: 06 August 2024
Orbit: 1501 x 1682 km, 47.2° (Epoch: 19 September)

Event Time Altitude Azimuth Distance (km) Brightness Sun altitude
Rises 22:28:05 0° 290° (WNW) 4,679 11.2 -18.0°
Reaches altitude 10° 22:32:17 10° 273° (W) 3,673 10.1 -18.5°
Maximum altitude 22:38:05 19° 233° (SW) 3,013 9.1 -19.2°
Drops below altitude 10° 22:43:52 10° 193° (SSW) 3,641 9.1 -19.8°
Enters shadow 22:44:27 - 190° (S) 3,763 9.2 -19.9°
